This is the latest recevied weather packets stored in our database for station/object KB3AWQ. If no packets are shown the sender has not sent any weather packets the latest 10 day(s).
| Time | Temp. | Humidity | Pressure | Rain* | Wind** | Luminosity | Snow |
|---|---|---|---|---|---|---|---|
| 1777988969 | 20.56° C | 67% | 1008.4 hPa | 0 mm | - | 607 W/m² | - |
| 1777988669 | 20° C | 70% | 1008.4 hPa | 0 mm | - | 583 W/m² | - |
| 1777988371 | 19.44° C | 72% | 1008.4 hPa | 0 mm | - | 563 W/m² | - |
| 1777988066 | 19.44° C | 72% | 1008.5 hPa | 0 mm | - | 551 W/m² | - |
| 1777987770 | 19.44° C | 73% | 1008.6 hPa | 0 mm | - | 550 W/m² | - |
| 1777987470 | 18.89° C | 74% | 1008.6 hPa | 0 mm | - | 533 W/m² | - |
| 1777987171 | 18.89° C | 75% | 1008.6 hPa | 0 mm | - | 513 W/m² | - |
| 1777986867 | 18.33° C | 74% | 1008.7 hPa | 0 mm | - | 476 W/m² | - |
| 1777986567 | 18.33° C | 76% | 1008.6 hPa | 0 mm | - | 466 W/m² | - |
| 1777986266 | 17.78° C | 78% | 1008.7 hPa | 0 mm | - | 443 W/m² | - |
| 1777985967 | 16.67° C | 81% | 1008.7 hPa | 0 mm | - | 411 W/m² | - |
| 1777985667 | 15.56° C | 84% | 1008.6 hPa | 0 mm | - | 390 W/m² | - |
| 1777985366 | 15° C | 86% | 1008.7 hPa | 0 mm | - | 379 W/m² | - |
| 1777985068 | 14.44° C | 88% | 1008.8 hPa | 0 mm | - | 378 W/m² | - |
| 1777984766 | 13.89° C | 90% | 1008.8 hPa | 0 mm | - | 366 W/m² | - |
| 1777984466 | 13.33° C | 91% | 1008.9 hPa | 0 mm | - | 228 W/m² | - |
| 1777984166 | 13.33° C | 91% | 1008.9 hPa | 0 mm | - | 96 W/m² | - |
| 1777983866 | 13.33° C | 91% | 1009 hPa | 0 mm | - | 133 W/m² | - |
| 1777983566 | 13.33° C | 91% | 1009 hPa | 0 mm | - | 82 W/m² | - |
| 1777983267 | 13.33° C | 91% | 1009 hPa | 0 mm | - | 54 W/m² | - |
| 1777982967 | 13.33° C | 90% | 1009 hPa | 0 mm | - | 28 W/m² | - |
| 1777982666 | 13.33° C | 90% | 1009 hPa | 0 mm | - | 20 W/m² | - |
| 1777982366 | 13.33° C | 90% | 1009 hPa | 0 mm | - | 28 W/m² | - |
| 1777982066 | 12.78° C | 89% | 1009.1 hPa | 0 mm | - | 28 W/m² | - |
| 1777981767 | 12.78° C | 90% | 1009.2 hPa | 0 mm | - | 51 W/m² | - |
* Rain latest hour (hover to see other rain measurements)
** Current wind speed in m/s (hover to see current wind gust speed)